FW7418 Weather Reports


Display with metric or nautical units.
time (UTC)temp
F
wind
direction
speed
MPH
gust
MPH
rain 1hr
in
rain 24hr
in
rain mn
in
humidity
%
barometer
mb
20260504232711 73 279 0.0 0.0 0.00 0.00 0.00 59 1009.1
20260504232208 73 242 2.0 3.0 0.00 0.00 0.00 58 1009.1
20260504231705 73 284 2.0 3.0 0.00 0.00 0.00 59 1009.3
20260504231201 73 301 1.0 1.0 0.00 0.00 0.00 57 1009.3
20260504230657 74 343 1.0 1.0 0.00 0.00 0.00 57 1009.3
20260504230156 73 333 0.0 0.0 0.00 0.00 0.00 58 1009.3
20260504225655 73 283 1.0 2.0 0.00 0.00 0.00 58 1009.4
20260504225150 74 267 0.0 0.0 0.00 0.00 0.00 57 1009.3
20260504224647 73 281 3.0 3.0 0.00 0.00 0.00 59 1009.6
20260504224144 72 281 1.0 1.0 0.00 0.00 0.00 61 1009.5
20260504223641 72 268 2.0 2.0 0.00 0.00 0.00 60 1009.8
20260504223137 72 245 1.0 2.0 0.00 0.00 0.00 61 1009.9
20260504222634 73 289 1.0 1.0 0.00 0.00 0.00 59 1010.0
20260504222131 73 288 1.0 1.0 0.00 0.00 0.00 60 1009.8
20260504221628 73 300 0.0 1.0 0.00 0.00 0.00 59 1009.6
20260504221125 72 296 1.0 1.0 0.00 0.00 0.00 62 1009.7
20260504220621 72 302 0.0 1.0 0.00 0.00 0.00 62 1009.7
20260504220120 72 316 1.0 1.0 0.00 0.00 0.00 61 1010.0
20260504215615 71 283 1.0 1.0 0.00 0.00 0.00 60 1009.6
20260504215113 71 283 2.0 2.0 0.00 0.00 0.00 60 1009.7
20260504214609 71 274 4.0 6.0 0.00 0.00 0.00 59 1009.8
20260504214105 72 267 3.0 3.0 0.00 0.00 0.00 59 1010.2
20260504213601 72 265 8.0 9.0 0.00 0.00 0.00 59 1010.4
20260504213059 73 239 7.0 8.0 0.00 0.00 0.00 59 1010.4
20260504212554 72 279 4.0 5.0 0.00 0.00 0.00 60 1010.3
20260504212052 72 256 4.0 5.0 0.00 0.00 0.00 61 1010.4
20260504211549 71 287 2.0 3.0 0.00 0.00 0.00 63 1010.2
20260504211045 70 280 2.0 3.0 0.00 0.00 0.00 64 1010.5
20260504210543 70 281 5.0 8.0 0.00 0.00 0.00 65 1010.4
20260504210039 70 273 3.0 3.0 0.00 0.00 0.00 66 1010.7
20260504205537 69 271 3.0 3.0 0.00 0.00 0.00 66 1010.6
20260504205035 69 292 4.0 5.0 0.00 0.00 0.00 67 1010.2
20260504204533 68 165 2.0 3.0 0.00 0.00 0.00 68 1010.3
20260504204032 68 266 2.0 3.0 0.00 0.00 0.00 68 1010.8
20260504203529 68 306 1.0 1.0 0.00 0.00 0.00 69 1011.3
20260504203027 68 284 3.0 3.0 0.00 0.00 0.00 70 1011.4
20260504202522 68 274 5.0 6.0 0.00 0.00 0.00 70 1011.2
20260504202019 68 294 2.0 2.0 0.00 0.00 0.00 69 1011.5
20260504201516 68 290 3.0 3.0 0.00 0.00 0.00 71 1011.3
20260504201014 68 139 1.0 3.0 0.00 0.00 0.00 71 1011.4
20260504200510 68 262 3.0 3.0 0.00 0.00 0.00 72 1011.4
20260504200007 68 212 3.0 5.0 0.00 0.00 0.00 70 1011.2
20260504195503 68 287 4.0 5.0 0.00 0.00 0.00 70 1011.4
20260504195000 68 283 1.0 2.0 0.00 0.00 0.00 70 1011.4
20260504194455 68 286 2.0 3.0 0.00 0.00 0.00 68 1011.3
20260504193951 68 295 0.0 1.0 0.00 0.00 0.00 69 1011.0
20260504193449 67 298 1.0 2.0 0.00 0.00 0.00 68 1011.4
20260504192948 67 250 3.0 3.0 0.00 0.00 0.00 69 1011.5
20260504192444 67 278 3.0 6.0 0.00 0.00 0.00 70 1012.0
20260504191943 68 277 3.0 5.0 0.00 0.00 0.00 69 1012.1
20260504191441 68 261 3.0 3.0 0.00 0.00 0.00 68 1012.2
20260504190936 68 273 3.0 5.0 0.00 0.00 0.00 68 1012.4
20260504190432 68 262 5.0 6.0 0.00 0.00 0.00 68 1012.5
20260504185929 69 264 3.0 5.0 0.00 0.00 0.00 69 1012.3
20260504185426 70 235 5.0 6.0 0.00 0.00 0.00 67 1012.7
20260504184922 70 249 2.0 2.0 0.00 0.00 0.00 66 1012.4
20260504184418 70 261 4.0 5.0 0.00 0.00 0.00 66 1012.2
20260504183914 70 280 4.0 5.0 0.00 0.00 0.00 65 1012.2
20260504183411 70 273 5.0 6.0 0.00 0.00 0.00 65 1012.3
20260504182909 70 276 3.0 3.0 0.00 0.00 0.00 65 1012.0
20260504182406 70 281 1.0 2.0 0.00 0.00 0.00 65 1011.5
20260504181903 70 277 2.0 3.0 0.00 0.00 0.00 63 1011.8
20260504181400 70 243 3.0 3.0 0.00 0.00 0.00 64 1012.0
20260504180859 71 278 8.0 10.0 0.00 0.00 0.00 63 1011.8
20260504180357 70 240 5.0 7.0 0.00 0.00 0.00 64 1011.6
20260504175855 70 272 2.0 2.0 0.00 0.00 0.00 65 1011.3
20260504175351 70 256 4.0 6.0 0.00 0.00 0.00 65 1011.3
20260504174849 70 270 5.0 6.0 0.00 0.00 0.00 64 1011.3
20260504174347 69 278 1.0 2.0 0.00 0.00 0.00 65 1011.5
20260504173843 68 307 3.0 3.0 0.00 0.00 0.00 65 1011.3
20260504173340 69 275 4.0 5.0 0.00 0.00 0.00 65 1011.5
20260504172837 69 274 5.0 6.0 0.00 0.00 0.00 64 1011.8
20260504172334 68 279 3.0 5.0 0.00 0.00 0.00 66 1011.6
20260504171829 69 281 3.0 5.0 0.00 0.00 0.00 66 1012.1
20260504171327 69 289 7.0 8.0 0.00 0.00 0.00 65 1011.9
20260504170824 68 280 2.0 2.0 0.00 0.00 0.00 66 1011.9
20260504170321 68 198 0.0 2.0 0.00 0.00 0.00 66 1011.5
20260504160239 67 293 3.0 5.0 0.00 0.00 0.00 64 1012.3
20260504150705 65 287 3.0 3.0 0.00 0.00 0.00 66 1012.4
20260504150201 65 89 2.0 2.0 0.00 0.00 0.00 66 1012.5
20260504141131 61 262 3.0 5.0 0.00 0.00 0.00 71 1013.0
20260504140627 60 283 2.0 2.0 0.00 0.00 0.00 71 1012.9
20260504140123 60 284 2.0 2.0 0.00 0.00 0.00 72 1013.1
20260504130551 58 296 1.0 1.0 0.00 0.00 0.00 71 1012.9
20260504110438 51 312 0.0 0.0 0.00 0.00 0.00 75 1013.1
20260504100401 50 344 0.0 0.0 0.00 0.00 0.00 74 1013.5
20260504081754 52 297 0.0 0.0 0.00 0.00 0.00 71 1014.1
20260504081251 52 297 0.0 0.0 0.00 0.00 0.00 71 1014.0
20260504080747 52 309 0.0 1.0 0.00 0.00 0.00 71 1014.0
20260504080243 52 319 0.0 0.0 0.00 0.00 0.00 70 1014.1
20260504070211 52 337 0.0 0.0 0.00 0.00 0.00 70 1014.4
20260504060132 52 316 0.0 0.0 0.00 0.00 0.00 69 1015.3
20260504050600 53 318 0.0 0.0 0.00 0.00 0.00 67 1016.0
20260504045554 54 324 0.0 0.0 0.00 0.00 0.00 66 1015.8
20260504045049 54 326 0.0 0.0 0.00 0.00 0.00 65 1015.9
20260504044547 54 321 0.0 0.0 0.00 0.00 0.00 65 1015.9
20260504044043 54 318 1.0 1.0 0.00 0.00 0.00 65 1016.0
20260504043541 55 302 1.0 1.0 0.00 0.00 0.00 65 1015.9
20260504043038 55 320 0.0 0.0 0.00 0.00 0.00 64 1016.1
20260504042535 55 253 1.0 1.0 0.00 0.00 0.00 64 1016.2
20260504042032 55 314 0.0 0.0 0.00 0.00 0.00 63 1016.0
20260504041527 55 330 0.0 0.0 0.00 0.00 0.00 63 1016.1
20260504041024 55 313 0.0 0.0 0.00 0.00 0.00 63 1016.1
20260504040521 55 277 0.0 0.0 0.00 0.00 0.00 62 1016.0
20260504040018 56 259 0.0 1.0 0.00 0.00 0.00 63 1016.3
20260504035515 55 266 1.0 1.0 0.00 0.00 0.00 62 1016.1
20260504035011 55 332 0.0 0.0 0.00 0.00 0.00 62 1016.3
20260504034509 55 334 0.0 0.0 0.00 0.00 0.00 63 1016.3
20260504034006 55 333 0.0 0.0 0.00 0.00 0.00 63 1016.3
20260504033504 55 335 0.0 0.0 0.00 0.00 0.00 62 1016.5
20260504033001 55 335 0.0 0.0 0.00 0.00 0.00 63 1016.3
20260504032457 55 329 0.0 0.0 0.00 0.00 0.00 63 1016.4
20260504031954 55 338 0.0 0.0 0.00 0.00 0.00 63 1016.4
20260504031451 55 327 0.0 0.0 0.00 0.00 0.00 63 1016.5
20260504030948 55 338 0.0 0.0 0.00 0.00 0.00 64 1016.3
20260504030445 55 335 0.0 0.0 0.00 0.00 0.00 64 1016.5
20260504025940 55 163 1.0 2.0 0.00 0.00 0.00 64 1016.8
20260504025437 55 353 0.0 1.0 0.00 0.00 0.00 65 1016.7
20260504024935 54 348 0.0 0.0 0.00 0.00 0.00 66 1016.7
20260504024432 54 350 0.0 0.0 0.00 0.00 0.00 67 1016.8
20260504023929 53 342 0.0 0.0 0.00 0.00 0.00 71 1016.9
20260504023425 53 341 0.0 0.0 0.00 0.00 0.00 72 1016.9
20260504022921 53 341 0.0 0.0 0.00 0.00 0.00 72 1016.8
20260504022417 53 341 0.0 0.0 0.00 0.00 0.00 71 1016.8
20260504021914 53 344 0.0 0.0 0.00 0.00 0.00 71 1016.8
20260504021411 53 339 0.0 0.0 0.00 0.00 0.00 72 1016.9
20260504020909 53 340 0.0 0.0 0.00 0.00 0.00 72 1017.0
20260504020405 53 340 0.0 0.0 0.00 0.00 0.00 72 1016.9
20260504015901 53 339 0.0 0.0 0.00 0.00 0.00 72 1016.9
20260504015357 52 339 0.0 1.0 0.00 0.00 0.00 73 1016.9
20260504014853 52 340 0.0 0.0 0.00 0.00 0.00 74 1016.9
20260504014350 52 339 0.0 0.0 0.00 0.00 0.00 75 1016.9
20260504013847 51 340 0.0 0.0 0.00 0.00 0.00 77 1016.8
20260504013345 51 339 0.0 0.0 0.00 0.00 0.00 79 1016.7
20260504012841 52 340 0.0 0.0 0.00 0.00 0.00 78 1016.7
20260504012339 51 339 0.0 0.0 0.00 0.00 0.00 78 1016.7
20260504011837 52 339 0.0 0.0 0.00 0.00 0.00 78 1016.6
20260504011333 52 344 0.0 0.0 0.00 0.00 0.00 76 1016.6
20260504010829 52 7 1.0 1.0 0.00 0.00 0.00 76 1016.8
20260504010325 52 8 1.0 1.0 0.00 0.00 0.00 76 1016.7
20260504005822 52 6 1.0 1.0 0.00 0.00 0.00 76 1016.8
20260504005318 52 17 1.0 1.0 0.00 0.00 0.00 75 1016.7
20260504004816 52 33 1.0 2.0 0.00 0.00 0.00 76 1016.8
20260504004314 52 65 1.0 2.0 0.00 0.00 0.00 76 1016.8
20260504003810 52 15 1.0 1.0 0.00 0.00 0.00 75 1016.8
20260504003307 52 349 0.0 0.0 0.00 0.00 0.00 77 1016.7
20260504002803 52 327 0.0 0.0 0.00 0.00 0.00 77 1016.6
20260504002300 53 32 1.0 1.0 0.00 0.00 0.00 74 1016.5
20260504001758 52 58 3.0 3.0 0.00 0.00 0.00 75 1016.7
20260504001255 53 65 1.0 2.0 0.00 0.00 0.00 74 1016.7
20260504000752 53 63 2.0 2.0 0.00 0.00 0.00 74 1016.9
20260504000248 53 2 0.0 1.0 0.00 0.00 0.00 73 1016.6
20260503235747 53 357 0.0 0.0 0.00 0.00 0.00 73 1016.5
20260503235243 53 3 0.0 1.0 0.00 0.00 0.00 72 1016.5
20260503234741 53 355 0.0 0.0 0.00 0.00 0.00 71 1016.5
20260503234239 53 43 3.0 5.0 0.00 0.00 0.00 70 1016.5
20260503233736 53 40 1.0 1.0 0.00 0.00 0.00 70 1016.5
20260503233232 53 72 2.0 3.0 0.00 0.00 0.00 70 1016.7